TimeCST,TemperatureF,Dew PointF,Humidity,Sea Level PressureIn,VisibilityMPH,Wind Direction,Wind SpeedMPH,Gust SpeedMPH,PrecipitationIn,Events,Conditions,WindDirDegrees,DateUTC
12:53 AM,34.0,28.9,82,30.21,10.0,WNW,6.9,-,N/A,,Partly Cloudy,290,2013-01-17 06:53:00
1:53 AM,33.1,28.0,82,30.23,10.0,WNW,4.6,-,N/A,,Scattered Clouds,300,2013-01-17 07:53:00
2:53 AM,32.0,25.0,75,30.24,10.0,WNW,5.8,-,N/A,,Clear,290,2013-01-17 08:53:00
3:53 AM,30.9,25.0,79,30.24,10.0,West,5.8,-,N/A,,Clear,270,2013-01-17 09:53:00
4:53 AM,28.0,26.1,92,30.23,10.0,Calm,Calm,-,N/A,,Clear,0,2013-01-17 10:53:00
5:53 AM,30.9,23.0,72,30.25,10.0,West,3.5,-,N/A,,Clear,280,2013-01-17 11:53:00
6:53 AM,27.0,25.0,92,30.27,10.0,Calm,Calm,-,N/A,,Scattered Clouds,0,2013-01-17 12:53:00
7:53 AM,33.1,24.1,70,30.30,10.0,West,4.6,-,N/A,,Overcast,280,2013-01-17 13:53:00
8:53 AM,37.0,25.0,62,30.32,10.0,WNW,4.6,-,N/A,,Clear,300,2013-01-17 14:53:00
9:53 AM,43.0,27.0,53,30.35,10.0,NW,9.2,-,N/A,,Clear,320,2013-01-17 15:53:00
10:53 AM,46.9,30.0,52,30.37,10.0,NW,9.2,-,N/A,,Clear,310,2013-01-17 16:53:00
11:53 AM,51.1,30.9,46,30.34,10.0,North,9.2,-,N/A,,Clear,360,2013-01-17 17:53:00
12:53 PM,53.1,33.1,47,30.33,10.0,North,5.8,-,N/A,,Clear,350,2013-01-17 18:53:00
1:53 PM,55.0,34.0,45,30.32,10.0,NNW,10.4,16.1,N/A,,Clear,330,2013-01-17 19:53:00
2:53 PM,55.9,34.0,44,30.33,10.0,North,9.2,18.4,N/A,,Clear,350,2013-01-17 20:53:00
3:53 PM,55.9,34.0,44,30.35,10.0,NNW,6.9,-,N/A,,Clear,340,2013-01-17 21:53:00
4:53 PM,55.9,34.0,44,30.38,10.0,North,3.5,-,N/A,,Clear,350,2013-01-17 22:53:00
5:53 PM,44.1,36.0,73,30.40,10.0,NW,3.5,-,N/A,,Clear,310,2013-01-17 23:53:00
6:53 PM,41.0,35.1,79,30.42,10.0,Calm,Calm,-,N/A,,Clear,0,2013-01-18 00:53:00
7:53 PM,39.0,34.0,82,30.44,10.0,North,3.5,-,N/A,,Clear,350,2013-01-18 01:53:00
8:53 PM,36.0,32.0,86,30.45,10.0,North,3.5,-,N/A,,Clear,350,2013-01-18 02:53:00
9:53 PM,35.1,32.0,89,30.48,10.0,Calm,Calm,-,N/A,,Clear,0,2013-01-18 03:53:00
10:53 PM,34.0,30.9,89,30.50,10.0,Calm,Calm,-,N/A,,Clear,0,2013-01-18 04:53:00
11:53 PM,35.1,30.0,82,30.51,10.0,North,3.5,-,N/A,,Clear,10,2013-01-18 05:53:00